Regional Weather Roundup
Issued by NWS

Home | Current Version | Previous Version | Graphics & Text | Print | Product List | Glossary On
Versions: 1 2 3 4 5 6 7 8 9 10 11 12 13 14 15 16 17 18 19 20 21 22 23 24 25 26 27 28 29 30 31 32 33 34 35 36 37 38 39 40 41 42 43 44 45 46 47 48 49 50
000
ASUS45 KSLC 301910
RWRUT

UTAH REGIONAL WEATHER ROUNDUP
NATIONAL WEATHER SERVICE SALT LAKE CITY UT
100 PM MDT TUE JUN 30 2015

UTZ001>011-023>025-302000-

NORTHERN UTAH

CITY           SKY/WX    TMP DP  RH WIND       PRES   REMARKS
BRIGHAM CITY   SUNNY     93  44  18 CALM      30.07F
HILL AFB       NOT AVBL
LOGAN          SUNNY     90  48  23 CALM      30.09F
OGDEN          SUNNY     93  51  23 VRB3      30.08F HX  90
PROVO AIRPORT  PTSUNNY   93  46  20 CALM      30.10F
SALT LAKE CITY MOSUNNY   95  55  26 NW6       30.05S HX  93
VERNAL         PTSUNNY   89  41  18 SW3       30.13F
WENDOVER       MOSUNNY   97  46  17 SE13      30.08S HX  93
HEBER CITY     SUNNY     90  43  19 NW3       30.17F
WEST JORDAN    SUNNY     93  48  21 E5        30.11S HX  90

$$

UTZ012>022-026-027-302000-

SOUTHERN/CENTRAL UTAH

CITY           SKY/WX    TMP DP  RH WIND       PRES   REMARKS
BLANDING       SUNNY     87  47  25 W5        30.27F
BRYCE CANYON   MOSUNNY   86  39  19 CALM      30.35F
CEDAR CITY     MOSUNNY   89  41  18 N5        30.17F
DELTA          SUNNY     95  41  15 W7        30.12S HX  91
HANKSVILLE     SUNNY    100  41  13 N6        30.07F HX  96
MILFORD        SUNNY     98  43  15 VRB5      30.11F HX  94
MOAB/CYNLANDS  SUNNY     99  45  15 MISG      30.04F HX  95
PRICE          SUNNY     98  40  13 VRB5      30.17F HX  93
ST GEORGE      CLEAR    102  52  18 NW8       29.95F HX 100
KANAB          SUNNY     95  46  18 CALM      30.15F HX  91

$$

REGIONAL REPORTS     COLORADO/ARIZONA

CITY           SKY/WX    TMP DP  RH WIND       PRES   REMARKS
CRAIG, CO      PTSUNNY   90  51  26 N5        30.21F
GRAND JUNCTION MOSUNNY   93  43  17 VRB7      30.08F
RIFLE          SUNNY     92  43  18 NW7       30.14F
MONTROSE       MOSUNNY   93  44  18 W7        30.17F
CORTEZ         SUNNY     92  45  19 W6        30.19F
PAGE, AZ       SUNNY     98  43  15 VRB3      30.04F HX  94
GRAND CANYON   MOSUNNY   85  49  28 SW8       30.27S
KINGMAN        MOSUNNY   98  50  19 SW10G21   30.04F HX  95
FLAGSTAFF      MOSUNNY   79  52  38 S13       30.33R

$$

REGIONAL REPORTS    NEVADA/IDAHO/WYOMING

CITY           SKY/WX    TMP DP  RH WIND       PRES   REMARKS
LAS VEGAS, NV  PTSUNNY  106  47  13 S6        29.86F HX 102
ELY            SUNNY     91  37  15 S8        30.23F
ELKO           SUNNY     94  44  17 W3        30.14F HX  90
POCATELLO, ID  MOSUNNY   87  57  35 VRB6      30.13S
BURLEY         SUNNY     90  58  33 W8        30.09F
EVANSTON, WY   SUNNY     86  47  25 SW9       30.30F
ROCK SPRINGS   SUNNY     86  43  22 VRB6G17   30.24F
KEMMERER       MOSUNNY   86  39  19 NW10G18   30.31F

$$



USA.gov is the U.S. government's official web portal to all federal, state and local government web resources and services.